Location: Usti nad Labem
(50.6670°N, 14.0330°E)
Time: 07:57:28
(UTC+02:00)

ISS - Visible Passes

Search period start: 23 July 2014 00:00
Search period end: 02 August 2014 00:00
Orbit: 412 x 420 km, 51.6° (Epoch: 23 July)

Date Brightness Start Highest point End Pass type
(mag) Time Alt. Az. Time Alt. Az. Time Alt. Az.
23 Jul -2.8 03:37:05 21° SW 03:38:58 47° SSE 03:42:14 10° E visible
24 Jul -2.4 02:50:15 32° SSE 02:50:34 33° SSE 02:53:38 10° E visible
24 Jul -3.2 04:23:45 10° W 04:27:07 85° NNW 04:30:30 10° ENE visible
25 Jul -1.3 02:03:23 19° ESE 02:03:23 19° ESE 02:04:56 10° E visible
25 Jul -3.3 03:36:15 18° WSW 03:38:36 80° SSE 03:41:59 10° ENE visible
26 Jul -3.3 02:49:22 45° SW 02:50:07 61° SSE 02:53:27 10° ENE visible
26 Jul -3.0 04:23:31 10° W 04:26:53 73° N 04:30:15 10° E visible
27 Jul -2.4 02:02:28 36° ESE 02:02:28 36° ESE 02:04:54 10° E visible
27 Jul -3.1 03:35:20 13° W 03:38:20 77° N 03:41:43 10° E visible
28 Jul -0.9 01:15:33 15° E 01:15:33 15° E 01:16:17 10° E visible
28 Jul -3.3 02:48:25 33° W 02:49:47 87° NNW 02:53:10 10° ENE visible
28 Jul -3.1 04:23:16 10° W 04:26:38 78° N 04:30:01 10° E visible
29 Jul -3.3 02:01:30 71° ESE 02:01:30 71° ESE 02:04:38 10° ENE visible
29 Jul -3.1 03:34:43 10° W 03:38:05 73° N 03:41:27 10° E visible
30 Jul -1.5 01:14:36 24° E 01:14:36 24° E 01:16:06 10° ENE visible
30 Jul -3.1 02:47:29 22° W 02:49:31 73° N 02:52:54 10° E visible
30 Jul -3.3 04:22:58 10° WNW 04:26:20 77° SSW 04:29:42 10° ESE visible
31 Jul -3.2 02:00:37 67° WNW 02:00:58 78° N 02:04:20 10° E visible
31 Jul -3.3 03:34:26 10° WNW 03:37:49 87° NNE 03:41:11 10° ESE visible
01 Aug -2.0 01:13:50 32° ENE 01:13:50 32° ENE 01:15:48 10° ENE visible
01 Aug -3.2 02:46:43 17° WNW 02:49:15 77° N 02:52:38 10° E visible
01 Aug -2.9 04:22:41 10° W 04:25:55 45° SSW 04:29:09 10° SE visible
